User: anonymous   Login
Location: Unspecified
(0.0000°N, 0.0000°E)
Time: 02:58:41
(UTC+00:00)
Language:

Kosmos-2004 - Orbit

View from above orbital plane
View from above orbital plane
View from above satellite
View from above satellite

Ground track
Ground track

The orbit data is extracted from the following two-line orbital elements,

1 19826U 89017A   19054.49826054  .00000040  00000-0  26393-4 0  9999
2 19826  82.9494  90.2758 0031619 108.1135   1.3698 13.72268879502393
Epoch (UTC): 23 February 2019 11:57:29
Eccentricity: 0.0031619
inclination: 82.9494°
perigee height: 968 km
apogee height: 1015 km
right ascension of ascending node: 90.2758°
argument of perigee: 108.1135°
revolutions per day: 13.72268879
mean anomaly at epoch: 1.3698°
orbit number at epoch: 50239

The dashed part of the orbit path shows where the satellite is in the earth's shadow,  

DLR